Regional Weather Roundup
Issued by NWS

Home | Current Version | Previous Version | Text Only | Print | Product List | Glossary Off
Versions: 1 2 3 4 5 6 7 8 9 10 11 12 13 14 15 16 17 18 19 20 21 22 23 24 25 26 27 28 29 30 31 32 33 34 35 36 37 38 39 40 41 42 43 44 45 46 47 48 49 50

264
ASUS43 KDMX 241906
RWRIA

WEATHER ROUNDUP FOR IOWA
NATIONAL WEATHER SERVICE DES MOINES IA
200 PM CDT FRI MAR 24 2017

NOTE: "FAIR" INDICATES FEW OR NO CLOUDS BELOW 12,000 FEET WITH NO
SIGNIFICANT WEATHER AND/OR OBSTRUCTIONS TO VISIBILITY.

* - THESE STATIONS ARE NOT NWS STATIONS...THUS NOT UNDER NWS
QUALITY CONTROL.  THEY ALSO DO NOT REPORT WEATHER SUCH
AS PRECIPITATION OR FOG.

IAZ001>003-012>014-020>022-031>034-043>046-242000-
   NORTHWEST IOWA

CITY           SKY/WX    TMP DP  RH WIND       PRES   REMARKS
CARROLL *      CLOUDY    43  43 100 N15       29.96S FOG
CHEROKEE *     CLOUDY    40  39  97 N13       30.01S WCI  33
LE MARS *      MIX PCPN  41  39  93 N15G21    30.03F
ORANGE CITY *  DRIZZLE   37  37 100 N13G20    30.02S WCI  29
SHELDON *      CLOUDY    39  39 100 N17       30.01F WCI  30
SIOUX CITY     CLOUDY    42  40  92 N15       30.02R
SPENCER        LGT RAIN  40  38  93 N20       30.01S FOG     WCI  30
STORM LAKE *   PTSUNNY   41  39  93 N17       29.99R FOG
$$

IAZ055>058-069>071-079>083-090>094-242000-
   SOUTHWEST IOWA

CITY           SKY/WX    TMP DP  RH WIND       PRES   REMARKS
ATLANTIC *     PTSUNNY   48  46  93 NE15      29.93R
AUDUBON *      CLOUDY    45  41  87 N12       29.95R FOG
CLARINDA *     CLOUDY    63  57  82 CALM      29.90F
COUNCIL BLFS * CLOUDY    46  46 100 N15G21    29.94R
CRESTON *      CLOUDY    57  57 100 SW6       29.92R
HARLAN  *      CLOUDY    46  45  93 N13G22    29.98R
LAMONI         LGT RAIN  55  54  96 S8        29.92R
RED OAK *      LGT RAIN  50  48  93 N10       29.91R
SHENANDOAH *   CLOUDY    54  52  94 N15       29.89F
$$

IAZ047>049-059>061-072>074-084-242000-
   CENTRAL IOWA

CITY           SKY/WX    TMP DP  RH WIND       PRES   REMARKS
AMES           RAIN      47  46  97 NE13      29.91F FOG
ANKENY *       LGT RAIN  48  45  87 N8        29.93F
BOONE *        LGT RAIN  45  45 100 N10       29.93F
CHARITON *     RAIN      57  54  88 NW6       29.91S
DES MOINES     LGT RAIN  49  46  90 CALM      29.93F FOG
GRINNELL*      RAIN      49  46  92 NW7       29.95R
MARSHALLTOWN   CLOUDY    49  46  90 N10       29.92F
NEWTON *       PTSUNNY   48  46  93 NE8       29.92F FOG
PELLA *        RAIN      52  50  94 N6        29.93S
PERRY *        CLOUDY    48  47  95 N13       29.93R FOG
$$

IAZ004>006-015-016-023>025-035-036-242000-
   NORTH CENTRAL IOWA

CITY           SKY/WX    TMP DP  RH WIND       PRES   REMARKS
ALGONA *       PTSUNNY   41  41 100 N16G23    30.00R FOG
CLARION *      CLOUDY    43  43 100 NE21      29.95S
ESTHERVILLE    CLOUDY    38  38 100 N20       30.02R WCI  28
FORT DODGE *   CLOUDY    43  37  81 N9G16     29.97R
MASON CITY     CLOUDY    42  39  89 N16       29.98R
FOREST CITY *  CLOUDY    41  41 100 N12       29.99S
WEBSTER CITY * CLOUDY    45  43  93 N14       29.92F
IOWA FALLS *   CLOUDY    46  43  87 NE13      29.96R
$$

IAZ007>011-017>019-026>030-037>042-050>054-066-242000-
   NORTHEAST IOWA

CITY           SKY/WX    TMP DP  RH WIND       PRES   REMARKS
CEDAR RAPIDS   CLOUDY    63  49  60 NW21G26   29.89R
CHARLES CITY * CLOUDY    45  45 100 N17       29.94F
CLINTON *      CLOUDY    75  45  34 SW21G29   29.87S
DECORAH *      CLOUDY    43  41  93 N13       29.95R
DUBUQUE        CLOUDY    70  47  43 W20G26    29.89R
MONTICELLO *   CLOUDY    72  46  40 SW17      29.88R
OELWEIN *      CLOUDY    48  46  93 NE6       29.94R
WATERLOO       CLOUDY    48  42  80 N8        29.94R
$$

IAZ064-065-067-068-078-242000-
   EAST CENTRAL IOWA

CITY           SKY/WX    TMP DP  RH WIND       PRES   REMARKS
DAVENPORT      CLOUDY    76  41  28 SW17G29   29.89R
IOWA CITY      CLOUDY    74  44  34 W22       29.89S
MUSCATINE *    CLOUDY    75  43  31 SW20G26   29.89S
QUAD CITIES    CLOUDY    76  40  27 W24G30    29.88R
$$

IAZ062-063-075>077-085>089-095>099-242000-
   SOUTHEAST IOWA

CITY           SKY/WX    TMP DP  RH WIND       PRES   REMARKS
BURLINGTON     CLOUDY    76  46  34 SW21G26   29.88F
FAIRFIELD *    CLOUDY    64  48  55 SW12      29.90S
FORT MADISON * CLOUDY    77  46  33 W15       29.89F
KEOKUK *       CLOUDY    77  46  33 SW15G37   29.88F
OSKALOOSA *    DRIZZLE   66  49  54 SW14      29.91R
CENTERVILLE *    N/A     63  46  55 SW6       29.94R
OTTUMWA        CLOUDY    69  45  41 W12       29.89S
WASHINGTON *   PTSUNNY   70  45  40 SW18      29.91R
$$

ABBREVIATIONS USED IN REMARKS
   TC - TEMPERATURES IN CELSIUS
  WCI - WIND CHILL INDEX
   HX - HEAT INDEX
  VSB - VISIBILITY
$$





USA.gov is the U.S. government's official web portal to all federal, state and local government web resources and services.